This is the latest recevied weather packets stored in our database for station/object KB1YYC. If no packets are shown the sender has not sent any weather packets the latest 10 day(s).
| Time | Temp. | Humidity | Pressure | Rain* | Wind** | Luminosity | Snow |
|---|---|---|---|---|---|---|---|
| 1778102914 | 14.44° C | 99% | 1005.5 hPa | 0 mm | - | 31 W/m² | - |
| 1778102609 | 14.44° C | 99% | 1005.6 hPa | 0 mm | - | 64 W/m² | - |
| 1778102305 | 14.44° C | 99% | 1005.7 hPa | 1.78 mm | - | 61 W/m² | - |
| 1778102001 | 14.44° C | 99% | 1005.7 hPa | 1.78 mm | - | 73 W/m² | - |
| 1778101699 | 14.44° C | 99% | 1005.7 hPa | 0 mm | - | 44 W/m² | - |
| 1778101395 | 14.44° C | 99% | 1005.8 hPa | 0 mm | - | 29 W/m² | - |
| 1778101093 | 14.44° C | 99% | 1005.8 hPa | 1.27 mm | - | 26 W/m² | - |
| 1778100788 | 15° C | 99% | 1005.9 hPa | 1.27 mm | - | 59 W/m² | - |
| 1778100485 | 15° C | 99% | 1005.9 hPa | 1.78 mm | - | 60 W/m² | - |
| 1778100183 | 15° C | 99% | 1005.8 hPa | 3.05 mm | - | 92 W/m² | - |
| 1778099881 | 15° C | 99% | 1005.8 hPa | 3.05 mm | - | 74 W/m² | - |
| 1778099577 | 15° C | 99% | 1006.1 hPa | 3.05 mm | - | 27 W/m² | - |
| 1778099274 | 15° C | 99% | 1006.1 hPa | 3.05 mm | - | 18 W/m² | - |
| 1778098971 | 15° C | 99% | 1006 hPa | 1.78 mm | - | 31 W/m² | - |
| 1778098668 | 15° C | 99% | 1006 hPa | 0 mm | - | 37 W/m² | - |
| 1778098364 | 15° C | 99% | 1005.9 hPa | 0 mm | - | 33 W/m² | - |
| 1778098061 | 15° C | 99% | 1005.9 hPa | 1.27 mm | - | 47 W/m² | - |
| 1778097758 | 15° C | 99% | 1006 hPa | 1.27 mm | - | 47 W/m² | - |
| 1778097454 | 15.56° C | 98% | 1006 hPa | 1.78 mm | - | 50 W/m² | - |
| 1778097151 | 15.56° C | 98% | 1006 hPa | 1.78 mm | - | 66 W/m² | - |
| 1778096848 | 15.56° C | 98% | 1006.2 hPa | 0 mm | - | 70 W/m² | - |
| 1778096545 | 15.56° C | 98% | 1006.2 hPa | 0 mm | - | 73 W/m² | - |
| 1778096242 | 15° C | 98% | 1006.6 hPa | 1.27 mm | - | 55 W/m² | - |
| 1778095939 | 15° C | 98% | 1006.4 hPa | 4.83 mm | - | 50 W/m² | - |
| 1778095636 | 15.56° C | 98% | 1006.5 hPa | 3.05 mm | - | 57 W/m² | - |
* Rain latest hour (hover to see other rain measurements)
** Current wind speed in m/s (hover to see current wind gust speed)